User: anonymous
Location: Huntington Beach
(33.6600°N, 117.9980°W)
Time: 02:12:38
(UTC-07:00)
Language:

SL-16 R/B - Orbit

View from above orbital plane
View from above orbital plane
View from above satellite
View from above satellite

Ground track
Ground track

The orbit data is extracted from the following two-line orbital elements,

1 28353U 04021B   14243.82256065  .00000123  00000-0  89770-4 0  8299
2 28353 071.0021 058.1849 0007030 300.0108 155.9442 14.14088394527917
Epoch (UTC): 31 August 2014 19:44:29
Eccentricity: 0.0007030
inclination: 71.0021°
perigee height: 840 km
apogee height: 850 km
right ascension of ascending node: 58.1849°
argument of perigee: 300.0108°
revolutions per day: 14.14088394
mean anomaly at epoch: 155.9442°
orbit number at epoch: 52791

The dashed part of the orbit path shows where the satellite is in the earth's shadow,  

DLR